Location: Kerb�bon
(47.7970°N, 3.3487°W)
Time: 13:26:10
(UTC+00:00)

Cosmos 1782 - Pass Details

Date: 12 May 2021
Orbit: 537 x 550 km, 82.5° (Epoch: 18 June)

Event Time Altitude Azimuth Distance (km) Brightness Sun altitude
Rises 20:15:56 0° 167° (SSE) 2,705 5.9 -5.8°
Reaches altitude 10° 20:18:11 10° 159° (SSE) 1,815 5.0 -6.1°
Maximum altitude 20:21:52 37° 92° (E) 869 3.4 -6.6°
Drops below altitude 10° 20:25:34 10° 25° (NNE) 1,822 5.6 -7.1°
Sets 20:27:50 0° 17° (NNE) 2,718 6.7 -7.4°
